EHI
0 0 0 0 0 0 0 0 0 0 0 0 0 0 0 0 0 0 3 12 20 20 18 20 26 28 23 18 16 16 14 11 8 7 5 3 1 0 0 0 0 0 0 0 0 0 1 1 1
0 0 0 0 0 0 0 0 0 0 0 0 0 0 0 0 0 0 4 11 17 17 15 17 24 26 21 16 15 15 14 12 10 8 6 4 2 1 0 0 0 0 0 0 0 0 0 0 0
0 0 0 0 0 0 0 0 0 0 0 0 0 0 0 0 0 1 4 8 11 12 11 14 20 22 20 17 14 14 13 11 9 8 6 4 3 2 0 0 0 0 0 0 0 0 0 0 0
0 0 0 0 0 0 0 0 0 0 0 0 0 0 0 0 0 1 3 5 8 9 10 12 17 20 20 17 14 12 10 8 7 7 5 2 1 1 1 1 0 0 0 0 0 0 0 0 0
0 0 0 0 0 0 0 0 0 0 0 0 0 0 0 1 1 1 3 6 8 9 9 10 14 17 17 15 13 11 9 7 7 7 5 2 0 0 1 1 0 0 0 0 0 0 0 0 0
0 0 0 0 0 0 0 0 0 0 0 0 0 0 0 1 1 1 3 7 8 9 9 8 9 11 12 11 11 9 8 7 7 7 6 3 0 0 1 1 0 0 0 0 0 0 0 0 0
0 0 0 0 0 0 0 0 0 0 0 0 0 0 0 1 1 1 4 7 9 9 8 7 6 6 7 6 6 6 5 5 5 5 4 2 0 1 1 0 1 1 0 0 0 0 0 0 0
0 0 0 0 0 0 0 0 0 0 0 0 0 0 1 2 2 3 5 8 9 9 7 6 4 4 4 3 3 3 2 2 2 2 1 0 0 1 1 1 1 2 1 0 0 0 0 0 0
0 0 0 0 0 0 0 0 0 0 0 0 0 1 3 3 3 4 5 6 7 8 6 5 4 3 2 1 1 1 1 0 0 0 0 0 0 1 1 0 1 2 1 0 0 0 0 0 0
0 0 0 0 0 0 0 0 0 0 0 0 0 1 4 4 4 5 5 5 5 6 6 5 3 2 2 1 1 2 1 0 0 0 0 0 0 0 0 0 0 1 1 0 0 0 0 0 0
0 0 0 0 0 0 0 0 0 0 0 0 0 1 3 3 3 4 4 4 5 5 5 4 3 3 3 3 4 4 3 1 0 0 0 0 0 0 0 0 0 0 0 0 0 0 0 0 0
0 0 0 0 0 0 0 0 0 0 0 0 0 1 1 1 1 1 2 3 5 5 4 3 3 4 5 5 5 4 2 1 0 0 0 0 0 0 0 0 0 0 0 0 0 0 0 0 0
0 0 0 0 0 0 0 0 0 0 0 0 0 0 0 0 0 0 0 1 3 3 3 3 3 4 5 4 3 2 1 0 0 0 0 0 0 0 0 0 0 0 0 0 0 0 0 0 0
0 0 0 0 0 0 0 0 0 0 0 0 0 0 0 0 0 0 0 1 2 2 3 3 3 3 3 3 2 0 0 0 0 0 0 0 0 0 0 0 0 0 0 0 0 0 0 0 0
0 0 0 0 0 0 0 0 0 0 0 0 0 0 0 0 0 0 0 1 2 3 3 3 3 2 2 2 2 1 1 0 0 0 0 0 0 0 0 0 0 0 0 0 0 0 0 0 0
0 0 0 0 0 0 0 0 0 0 0 0 0 0 0 0 0 0 0 1 1 2 3 3 2 1 1 2 3 3 2 1 1 1 0 0 0 0 0 0 0 0 0 0 0 0 0 0 0
0 0 0 0 0 0 0 0 0 0 0 0 0 0 0 0 0 0 0 0 0 1 2 1 1 1 0 1 3 3 3 3 2 2 1 0 0 0 0 0 0 0 0 0 0 0 0 0 0
0 0 0 0 0 0 0 0 0 0 0 0 0 0 0 0 0 0 0 0 0 0 1 0 0 0 0 1 2 3 3 3 3 3 2 1 0 0 0 0 0 0 0 0 0 0 0 0 0
0 0 0 0 0 0 0 0 0 0 0 0 0 0 0 0 0 0 0 0 0 0 1 0 0 0 0 1 2 3 3 3 3 3 3 2 1 0 0 0 0 0 0 0 0 0 0 0 0
0 0 0 0 0 0 0 0 0 0 0 0 0 0 0 0 0 0 0 1 0 0 0 0 0 0 0 1 2 3 3 3 3 3 3 2 1 0 0 0 0 0 0 0 0 0 0 0 0
0 0 0 0 0 0 0 0 0 0 0 0 0 0 0 0 0 0 0 0 0 0 0 0 0 0 0 1 2 3 3 3 3 3 3 2 1 1 0 0 0 0 0 0 0 0 0 0 0
0 0 0 0 0 0 0 0 0 0 0 0 0 0 0 0 0 0 0 0 0 0 0 0 0 0 0 1 2 3 3 3 3 3 3 2 2 1 0 0 0 0 0 0 0 0 0 0 0
0 0 0 0 0 0 0 0 0 0 0 0 0 0 0 0 0 0 0 0 0 0 0 0 0 0 0 0 1 3 3 3 3 3 3 3 2 1 0 0 0 0 0 0 0 0 0 0 0
0 0 0 0 0 0 0 0 0 0 0 0 0 0 0 0 0 0 0 0 0 0 0 0 0 0 0 0 1 2 3 3 3 3 3 3 2 0 0 0 0 0 0 0 0 0 0 0 0
0 0 0 0 0 0 0 0 0 0 0 0 0 0 0 0 0 0 0 0 0 0 0 0 0 0 0 0 1 2 2 2 1 1 3 3 2 1 0 0 0 0 0 0 0 0 0 0 0
0 0 0 0 0 0 0 0 0 0 0 0 0 0 0 0 0 0 0 0 0 0 0 0 0 0 0 0 0 1 1 1 0 1 2 3 2 1 0 0 0 0 0 0 0 0 0 0 0
0 0 0 0 0 0 0 0 0 0 0 0 0 0 0 0 0 0 0 0 0 0 0 0 0 0 0 0 0 0 0 0 0 1 1 1 1 0 0 0 0 0 0 0 0 0 0 0 0
0 0 0 0 0 0 0 0 0 0 0 0 0 0 0 0 0 0 0 0 0 0 0 0 0 0 0 0 0 0 0 0 0 0 0 0 0 0 0 0 0 0 0 0 0 0 0 0 0
0 0 0 0 0 0 0 0 0 0 0 0 0 0 0 0 0 0 0 0 0 0 0 0 0 0 0 0 0 0 0 0 0 0 0 0 0 0 0 0 0 0 0 0 0 0 0 0 0
0 0 0 0 0 0 0 0 0 0 0 0 0 0 0 0 0 0 0 0 0 0 0 0 0 0 0 0 0 0 0 0 0 0 0 0 0 0 0 0 0 0 0 0 0 0 0 0 0
Wind_Speed
8 9 7 3 3 5 8 8 5 1 2 4 6 4 4 5 5 8 4 7 10 11 12 12 13 12 12 11 11 11 10 10 9 9 9 9 9 9 9 8 8 8 8 8 8 8 8 7 7
9 8 5 3 4 6 8 10 7 2 5 5 4 2 2 5 8 8 5 8 10 11 11 11 13 12 12 11 11 11 10 10 10 9 9 9 9 8 8 8 8 8 8 8 7 7 7 7 7
11 8 4 4 6 7 5 1 4 6 7 4 2 1 3 5 7 6 7 8 10 10 10 11 13 13 12 11 11 10 10 10 9 9 9 8 8 8 8 8 8 8 7 7 7 6 6 6 6
5 4 4 6 11 9 6 1 6 5 4 2 3 3 4 6 4 7 8 8 10 11 10 10 13 13 12 11 11 10 10 9 9 9 9 8 8 8 8 8 8 7 7 6 6 5 5 5 5
4 4 6 8 12 10 6 2 5 3 5 4 3 4 5 4 8 9 7 8 10 10 10 10 13 13 12 11 10 10 9 9 9 8 8 8 7 7 7 7 7 7 7 6 5 5 5 4 3
4 4 6 9 11 10 6 2 4 3 3 4 3 4 5 6 7 6 6 7 10 10 10 10 12 12 12 11 10 10 9 8 8 8 7 7 7 7 7 7 7 6 6 5 5 4 4 3 2
4 4 7 9 8 7 4 4 4 3 4 4 2 4 6 7 6 6 6 7 9 9 9 8 8 9 10 11 10 9 9 8 8 7 7 6 6 6 6 6 5 5 5 4 4 3 3 2 2
4 4 7 9 8 5 1 3 2 1 2 1 1 2 6 9 7 6 6 6 7 7 7 7 7 7 6 6 9 9 8 8 7 7 5 5 5 5 5 5 4 4 3 3 2 2 1 1 0
4 4 6 6 5 1 4 3 2 3 2 1 3 4 7 11 8 7 6 5 5 5 5 5 6 6 6 5 7 7 7 6 6 5 5 3 2 3 3 4 4 3 2 1 1 0 0 0 1
4 5 6 3 4 3 3 1 2 1 3 2 3 6 9 9 7 7 6 6 6 5 5 4 5 5 5 4 4 3 4 3 3 2 2 1 1 1 2 4 3 2 1 1 1 1 1 1 1
6 7 6 4 4 4 2 1 1 3 5 5 6 8 9 8 7 6 6 6 6 5 4 4 4 4 4 3 3 2 2 2 2 2 2 1 1 1 1 1 1 1 1 1 1 2 1 2 1
8 8 7 5 3 2 3 3 4 6 4 1 2 7 9 8 8 7 6 6 5 5 5 4 4 4 4 3 2 2 2 2 2 2 1 1 1 1 1 1 1 1 0 0 1 1 2 2 2
12 8 6 4 2 3 5 7 6 7 5 3 1 5 7 8 7 6 5 6 6 6 5 4 4 4 3 3 2 2 2 2 2 2 1 1 1 1 0 0 0 0 0 1 1 1 2 2 2
6 7 7 5 5 5 7 8 7 8 5 5 6 6 7 7 7 6 5 5 6 6 6 5 5 4 4 3 2 2 2 2 2 1 2 2 1 1 1 0 0 1 1 1 1 2 2 2 2
4 5 8 9 8 5 5 9 12 11 7 7 7 7 7 7 7 7 6 6 6 6 6 5 5 5 4 3 3 2 2 2 2 2 2 2 2 1 1 1 1 1 1 1 1 2 1 2 2
5 6 7 7 10 7 5 9 7 8 9 8 7 7 7 7 7 6 6 5 5 6 6 5 5 4 4 3 2 2 2 2 2 2 2 2 2 2 1 1 1 1 1 1 1 1 1 2 2
7 7 8 6 8 7 8 7 4 3 7 8 8 7 7 7 7 6 6 6 6 6 6 5 5 4 3 3 2 2 2 2 2 2 1 2 2 2 1 1 1 1 1 1 1 1 1 2 2
8 8 8 8 7 7 8 8 5 4 5 7 7 7 7 7 7 7 6 6 6 6 6 5 5 5 4 2 2 1 1 1 1 2 2 2 2 2 1 1 1 1 1 1 1 2 2 2 2
7 7 7 4 3 6 8 10 9 8 7 7 7 7 7 7 6 7 6 6 6 6 6 5 5 4 4 3 2 2 2 2 2 2 3 2 2 2 2 1 1 1 1 1 2 1 2 2 2
11 10 8 3 2 4 6 10 9 9 9 8 7 7 6 6 6 7 6 6 5 6 5 5 4 4 4 3 3 2 2 2 2 2 2 3 3 3 2 3 2 2 1 2 2 1 2 2 1
12 10 8 5 2 4 5 8 10 9 9 8 7 6 5 6 7 7 7 6 5 5 5 4 4 4 3 3 2 1 1 0 1 2 2 3 3 3 3 3 3 2 2 2 2 2 2 2 2
9 7 8 6 4 4 5 5 5 6 8 9 7 6 5 5 5 6 6 6 5 4 4 4 4 3 3 3 3 4 3 3 3 3 2 3 3 3 3 3 3 3 2 2 3 2 2 2 3
4 2 4 5 5 5 5 5 6 5 6 8 7 6 5 4 5 5 5 5 4 4 3 3 3 3 3 3 3 3 3 2 2 2 3 3 3 4 4 3 3 3 3 3 3 3 3 3 3
3 1 1 2 2 6 9 8 6 6 8 7 6 6 5 5 4 5 5 4 3 3 3 3 3 3 3 3 3 4 3 3 3 3 3 2 2 2 3 3 3 3 3 3 3 4 4 4 4
4 4 3 3 5 8 7 8 6 3 3 6 6 6 6 5 4 4 5 4 4 3 3 3 3 3 3 3 3 3 4 4 4 3 3 2 2 2 3 3 3 3 3 3 3 3 4 4 5
8 7 6 6 6 4 5 7 3 3 4 6 6 6 6 5 4 4 4 3 3 3 3 3 3 2 2 2 2 3 3 2 2 3 2 3 3 3 3 3 3 3 3 4 4 3 4 4 5
6 8 4 2 2 2 5 4 1 3 4 6 6 6 5 5 4 4 3 3 3 3 2 2 2 1 1 1 1 1 1 2 2 2 2 2 2 2 2 3 3 3 3 4 4 4 4 4 5
4 3 2 4 4 5 5 6 4 5 5 5 6 5 5 4 4 4 3 2 2 2 2 2 2 1 1 0 1 1 1 1 1 1 2 2 2 2 2 3 3 3 4 4 4 4 4 4 5
5 4 4 3 4 3 4 1 2 5 5 6 5 5 5 4 4 3 2 2 2 3 2 2 1 1 1 0 0 0 1 1 1 1 2 2 2 2 2 3 3 3 4 4 4 4 4 5 5
4 5 6 4 4 3 1 1 3 5 6 6 5 5 5 4 4 3 3 3 3 3 2 2 1 1 1 1 1 1 1 0 1 1 2 2 2 2 2 2 3 3 3 3 4 5 5 5 6
Wind_Direction
276 254 239 237 230 231 239 243 243 124 62 37 27 20 23 28 36 108 157 104 108 114 119 118 116 115 111 108 106 102 99 98 98 97 97 97 96 95 94 96 97 95 93 89 89 93 95 95 96
274 246 232 231 235 230 235 228 233 147 94 69 46 7 43 73 82 106 116 107 112 113 116 117 115 114 113 110 106 103 100 97 95 94 93 94 95 96 97 96 95 93 90 85 84 87 92 93 95
265 245 229 222 228 231 250 163 123 96 96 113 120 12 38 75 95 105 117 126 116 110 111 116 116 114 112 110 107 104 101 99 96 94 93 94 94 94 95 95 95 93 89 86 85 84 90 92 94
240 218 243 241 242 244 262 54 87 103 112 136 141 108 73 49 79 109 129 129 116 112 111 117 117 116 114 112 109 106 102 100 97 94 94 93 94 95 92 90 90 89 87 90 88 86 90 94 96
241 229 226 237 245 256 271 84 96 150 155 172 186 127 90 67 93 117 134 124 115 112 113 118 116 115 114 113 111 109 106 102 99 96 96 94 95 94 92 89 91 90 87 85 86 86 90 97 104
226 234 231 231 237 237 232 177 149 209 184 164 186 144 109 119 115 129 128 117 113 115 116 120 117 117 114 113 112 109 106 103 100 97 97 95 93 94 94 95 93 90 88 85 81 79 86 89 105
243 245 249 255 249 236 201 153 170 208 207 177 179 131 126 133 130 134 122 108 110 115 120 125 125 119 116 113 111 107 105 103 100 99 99 98 97 98 98 97 95 92 90 87 82 75 79 82 96
267 270 250 251 256 255 129 110 108 309 258 148 134 142 143 142 141 132 115 105 110 117 123 130 131 127 121 118 116 115 113 112 111 111 111 112 112 110 106 100 98 98 94 91 87 78 79 84 136
270 253 251 248 253 245 92 102 87 27 349 23 64 59 115 133 139 129 125 116 119 123 125 128 127 126 125 126 128 131 131 132 134 132 135 132 132 126 118 110 103 105 108 113 115 101 274 255 241
216 237 245 292 353 18 70 82 116 178 221 196 118 98 119 140 149 152 155 150 145 140 131 125 124 125 127 131 134 151 150 148 143 130 130 133 117 115 121 138 146 143 146 189 224 257 241 233 228
207 237 258 286 10 6 354 275 240 239 228 207 174 149 144 155 163 168 168 156 150 143 130 122 121 125 122 123 133 126 130 138 133 124 129 118 102 118 115 135 152 162 170 210 240 236 230 235 229
234 242 263 287 10 339 294 271 242 232 238 308 147 151 159 173 179 180 177 166 153 143 141 133 127 127 133 131 131 141 139 141 143 139 130 119 110 85 98 121 144 159 190 227 247 237 245 254 253
237 251 259 271 271 266 273 267 270 253 240 261 169 163 175 183 186 188 185 166 152 147 146 141 138 141 137 132 150 139 135 141 149 144 149 127 130 133 107 136 158 210 223 244 266 269 259 254 256
242 250 256 253 243 238 244 252 247 246 225 213 190 191 192 192 190 187 188 173 157 152 152 149 150 151 141 145 156 149 144 144 143 154 163 156 144 143 148 151 213 249 243 248 262 271 269 261 257
273 267 259 239 228 222 231 248 232 235 220 214 201 195 193 197 193 191 186 174 162 155 150 150 153 152 156 161 162 149 159 151 154 171 175 166 150 157 160 175 233 249 254 282 287 287 292 287 279
231 237 240 223 205 190 196 249 231 206 203 214 208 196 194 197 194 184 174 164 155 148 148 150 153 153 162 159 158 159 160 151 164 173 178 176 172 175 167 181 232 259 270 272 287 292 300 295 290
211 227 229 223 189 182 201 247 243 207 200 210 210 202 195 189 189 181 174 162 152 150 150 152 152 157 162 158 164 168 155 159 168 173 183 187 188 187 166 190 224 259 285 289 288 304 299 295 294
207 221 230 218 184 195 217 244 245 233 227 221 210 200 197 192 187 177 166 157 152 152 153 156 155 159 157 154 157 152 160 174 171 173 185 198 197 189 175 203 217 225 251 281 277 283 294 287 286
265 254 251 245 192 210 232 247 248 235 225 226 218 205 200 194 179 164 157 154 151 151 154 156 157 165 158 156 161 169 187 196 193 187 186 203 201 195 193 208 232 220 217 238 252 270 286 295 304
252 262 265 255 224 246 258 261 254 240 223 213 213 208 196 184 177 163 154 152 156 155 154 158 165 172 169 167 171 178 186 193 190 188 193 206 208 203 207 196 214 224 220 241 251 261 278 290 290
236 241 249 249 257 255 271 270 240 233 222 210 205 201 194 183 177 162 156 154 152 153 159 168 172 177 173 165 157 159 135 178 192 206 209 213 214 206 202 208 214 220 214 228 234 228 240 269 273
239 239 250 256 245 244 211 268 244 213 204 203 199 192 193 179 160 154 152 153 154 154 153 161 172 176 176 167 168 173 188 209 217 204 207 216 218 209 204 211 219 224 221 232 242 243 237 242 260
240 272 251 250 251 267 237 249 259 208 206 197 189 184 175 155 145 145 145 146 144 141 150 161 165 171 172 177 181 186 203 218 221 210 208 223 224 209 205 210 216 226 227 231 241 246 241 237 243
187 147 283 263 242 247 222 222 257 210 202 184 173 160 142 130 126 128 128 127 127 128 140 149 161 180 181 187 191 194 207 216 217 230 220 221 224 219 211 214 214 220 226 228 240 241 240 242 245
183 157 166 196 212 236 205 210 237 200 164 151 141 124 116 113 120 126 125 133 136 142 147 160 171 184 187 191 195 204 211 215 220 224 223 224 223 228 222 226 223 225 228 237 243 244 244 244 244
204 198 187 194 210 225 202 219 213 132 110 109 111 109 106 110 109 107 118 129 138 146 156 169 177 185 187 195 207 217 214 211 224 226 228 232 227 222 217 226 230 237 235 246 245 246 248 251 249
198 222 250 279 286 252 220 197 186 143 120 121 123 117 110 106 106 101 96 111 130 139 145 146 156 170 179 193 214 231 228 221 227 233 235 248 241 233 223 228 232 234 236 239 243 243 244 247 248
236 206 186 204 208 235 229 203 186 170 163 141 133 122 108 99 100 97 90 95 116 131 131 131 136 147 157 169 218 258 264 250 229 230 243 258 250 240 239 246 239 238 240 244 247 249 252 254 255
199 209 201 207 236 214 228 210 38 142 132 121 109 106 104 103 101 92 90 90 102 100 101 96 92 85 73 44 53 34 287 257 250 242 247 265 256 241 240 248 250 247 250 253 255 260 261 261 264
215 205 188 189 223 224 237 281 18 88 94 88 87 83 85 86 86 88 87 76 75 81 77 71 69 67 57 58 68 59 9 352 287 270 271 276 268 265 259 259 256 259 265 261 259 266 268 266 269